Time,TemperatureF,DewpointF,PressureIn,WindDirection,WindDirectionDegrees,WindSpeedMPH,WindSpeedGustMPH,Humidity,HourlyPrecipIn,Conditions,Clouds,dailyrainin,SoftwareType,DateUTC
2013-02-23 00:00:00,37.2,34.8,29.77,SE,135,0.0,0.0,91,0.02,RA,,0.00,WeatherDisplay:10.37,2013-02-23 08:00:00,
2013-02-23 00:05:00,37.2,34.8,29.77,NNW,338,4.0,4.0,91,0.02,RA,,0.00,WeatherDisplay:10.37,2013-02-23 08:05:00,
2013-02-23 00:10:00,37.4,35.0,29.77,East,90,0.0,0.0,91,0.02,CLR,,0.00,WeatherDisplay:10.37,2013-02-23 08:10:00,
2013-02-23 00:15:00,37.4,35.0,29.77,SE,135,4.6,4.6,91,0.00,CLR,,0.00,WeatherDisplay:10.37,2013-02-23 08:15:00,
2013-02-23 00:20:00,37.6,35.2,29.77,ESE,112,3.5,0.0,91,0.00,CLR,,0.00,WeatherDisplay:10.37,2013-02-23 08:20:00,
2013-02-23 00:25:00,37.8,35.4,29.77,SE,135,0.0,0.0,91,0.00,CLR,,0.00,WeatherDisplay:10.37,2013-02-23 08:25:00,
2013-02-23 00:30:00,37.8,35.4,29.77,SE,135,0.0,0.0,91,0.00,CLR,,0.00,WeatherDisplay:10.37,2013-02-23 08:30:00,
2013-02-23 00:35:00,37.8,35.4,29.77,SE,135,0.0,0.0,91,0.00,CLR,,0.00,WeatherDisplay:10.37,2013-02-23 08:35:00,
2013-02-23 00:40:00,37.6,35.2,29.78,SE,135,0.0,0.0,91,0.00,CLR,,0.00,WeatherDisplay:10.37,2013-02-23 08:40:00,
2013-02-23 00:45:00,37.6,35.2,29.78,SE,135,0.0,0.0,91,0.00,CLR,,0.00,WeatherDisplay:10.37,2013-02-23 08:45:00,
2013-02-23 00:50:00,37.4,35.0,29.78,South,180,0.0,0.0,91,0.00,CLR,,0.00,WeatherDisplay:10.37,2013-02-23 08:50:00,
2013-02-23 00:55:00,37.2,34.8,29.78,South,180,0.0,0.0,91,0.00,CLR,,0.00,WeatherDisplay:10.37,2013-02-23 08:55:00,
2013-02-23 01:00:00,37.2,34.8,29.79,South,180,0.0,0.0,91,0.00,CLR,,0.00,WeatherDisplay:10.37,2013-02-23 09:00:00,
2013-02-23 01:05:00,37.2,34.8,29.79,South,180,0.0,0.0,91,0.00,CLR,,0.00,WeatherDisplay:10.37,2013-02-23 09:05:00,
2013-02-23 01:10:00,37.0,34.7,29.79,South,180,0.0,0.0,91,0.00,CLR,,0.00,WeatherDisplay:10.37,2013-02-23 09:10:00,
2013-02-23 01:15:00,36.9,34.5,29.80,South,180,0.0,0.0,91,0.00,CLR,,0.00,WeatherDisplay:10.37,2013-02-23 09:15:00,
2013-02-23 01:20:00,36.9,34.5,29.80,South,180,0.0,0.0,91,0.00,CLR,,0.00,WeatherDisplay:10.37,2013-02-23 09:20:00,
2013-02-23 01:25:00,36.7,34.3,29.80,South,180,0.0,0.0,91,0.00,CLR,,0.00,WeatherDisplay:10.37,2013-02-23 09:25:00,
2013-02-23 01:30:00,36.7,34.3,29.80,South,180,0.0,0.0,91,0.00,CLR,,0.00,WeatherDisplay:10.37,2013-02-23 09:30:00,
2013-02-23 01:35:00,36.5,33.8,29.80,South,180,0.0,0.0,90,0.00,CLR,,0.00,WeatherDisplay:10.37,2013-02-23 09:35:00,
2013-02-23 01:40:00,36.3,33.7,29.80,South,180,0.0,0.0,90,0.00,CLR,,0.00,WeatherDisplay:10.37,2013-02-23 09:40:00,
2013-02-23 01:45:00,36.3,33.9,29.80,SE,135,5.8,5.8,91,0.00,CLR,,0.00,WeatherDisplay:10.37,2013-02-23 09:45:00,
2013-02-23 01:50:00,36.1,33.8,29.82,SSE,158,0.0,0.0,91,0.00,CLR,,0.00,WeatherDisplay:10.37,2013-02-23 09:50:00,
2013-02-23 01:55:00,36.1,33.8,29.82,WNW,292,0.0,0.0,91,0.00,CLR,,0.00,WeatherDisplay:10.37,2013-02-23 09:55:00,
2013-02-23 02:00:00,36.1,33.8,29.82,WNW,292,0.0,0.0,91,0.00,CLR,,0.00,WeatherDisplay:10.37,2013-02-23 10:00:00,
2013-02-23 02:05:00,36.3,33.9,29.84,NNW,338,1.1,0.0,91,0.00,CLR,,0.00,WeatherDisplay:10.37,2013-02-23 10:05:00,
2013-02-23 02:10:00,36.3,33.9,29.83,NNW,338,0.0,0.0,91,0.00,CLR,,0.00,WeatherDisplay:10.37,2013-02-23 10:10:00,
2013-02-23 02:15:00,36.3,33.9,29.83,NNW,338,0.0,0.0,91,0.00,CLR,,0.00,WeatherDisplay:10.37,2013-02-23 10:15:00,
2013-02-23 02:20:00,36.3,33.9,29.83,NNW,338,0.0,0.0,91,0.00,CLR,,0.00,WeatherDisplay:10.37,2013-02-23 10:20:00,
2013-02-23 02:25:00,36.3,33.9,29.82,NNW,338,0.0,0.0,91,0.00,CLR,,0.00,WeatherDisplay:10.37,2013-02-23 10:25:00,
2013-02-23 02:30:00,36.3,33.9,29.81,NNW,338,0.0,0.0,91,0.00,CLR,,0.00,WeatherDisplay:10.37,2013-02-23 10:30:00,
2013-02-23 02:35:00,36.3,33.9,29.80,WNW,292,0.0,0.0,91,0.00,CLR,,0.00,WeatherDisplay:10.37,2013-02-23 10:35:00,
2013-02-23 02:40:00,36.1,33.8,29.81,WSW,248,0.0,0.0,91,0.00,CLR,,0.00,WeatherDisplay:10.37,2013-02-23 10:40:00,
2013-02-23 02:45:00,36.0,33.6,29.82,WSW,248,0.0,0.0,91,0.00,CLR,,0.00,WeatherDisplay:10.37,2013-02-23 10:45:00,
2013-02-23 02:50:00,35.8,33.4,29.83,WSW,248,0.0,0.0,91,0.00,CLR,,0.00,WeatherDisplay:10.37,2013-02-23 10:50:00,
2013-02-23 02:55:00,35.4,33.1,29.83,WSW,248,0.0,0.0,91,0.00,CLR,,0.00,WeatherDisplay:10.37,2013-02-23 10:55:00,
2013-02-23 03:00:00,35.4,33.1,29.83,WSW,248,0.0,0.0,91,0.00,CLR,,0.00,WeatherDisplay:10.37,2013-02-23 11:00:00,
2013-02-23 03:05:00,35.2,32.9,29.83,WSW,248,0.0,0.0,91,0.00,CLR,,0.00,WeatherDisplay:10.37,2013-02-23 11:05:00,
2013-02-23 03:10:00,35.4,33.1,29.83,WSW,248,0.0,0.0,91,0.00,CLR,,0.00,WeatherDisplay:10.37,2013-02-23 11:10:00,
2013-02-23 03:15:00,35.4,33.1,29.84,WSW,248,0.0,0.0,91,0.00,CLR,,0.00,WeatherDisplay:10.37,2013-02-23 11:15:00,
2013-02-23 03:20:00,35.2,32.9,29.84,WSW,248,0.0,0.0,91,0.00,CLR,,0.00,WeatherDisplay:10.37,2013-02-23 11:20:00,
2013-02-23 03:25:00,35.2,32.9,29.84,WSW,248,0.0,0.0,91,0.00,CLR,,0.00,WeatherDisplay:10.37,2013-02-23 11:25:00,
2013-02-23 03:30:00,34.9,32.5,29.84,WSW,248,0.0,0.0,91,0.00,CLR,,0.00,WeatherDisplay:10.37,2013-02-23 11:30:00,
2013-02-23 03:35:00,34.9,32.5,29.85,WSW,248,0.0,0.0,91,0.00,CLR,,0.00,WeatherDisplay:10.37,2013-02-23 11:35:00,
2013-02-23 03:40:00,34.7,32.3,29.85,WSW,248,0.0,0.0,91,0.00,CLR,,0.00,WeatherDisplay:10.37,2013-02-23 11:40:00,
2013-02-23 03:45:00,34.5,32.2,29.85,WSW,248,0.0,0.0,91,0.00,CLR,,0.00,WeatherDisplay:10.37,2013-02-23 11:45:00,
2013-02-23 03:50:00,34.3,32.0,29.85,WSW,248,0.0,0.0,91,0.00,CLR,,0.00,WeatherDisplay:10.37,2013-02-23 11:50:00,
2013-02-23 03:55:00,34.3,32.0,29.85,WSW,248,0.0,0.0,91,0.00,CLR,,0.00,WeatherDisplay:10.37,2013-02-23 11:55:00,
2013-02-23 04:00:00,34.3,32.0,29.85,WSW,248,0.0,0.0,91,0.00,CLR,,0.00,WeatherDisplay:10.37,2013-02-23 12:00:00,
2013-02-23 04:05:00,34.2,31.8,29.85,WSW,248,0.0,0.0,91,0.00,CLR,,0.00,WeatherDisplay:10.37,2013-02-23 12:05:00,
2013-02-23 04:10:00,34.0,31.6,29.86,WSW,248,0.0,0.0,91,0.00,CLR,,0.00,WeatherDisplay:10.37,2013-02-23 12:10:00,
2013-02-23 04:15:00,33.6,31.3,29.85,WSW,248,0.0,0.0,91,0.00,CLR,,0.00,WeatherDisplay:10.37,2013-02-23 12:15:00,
2013-02-23 04:20:00,33.6,31.3,29.86,WSW,248,0.0,0.0,91,0.00,CLR,,0.00,WeatherDisplay:10.37,2013-02-23 12:20:00,
2013-02-23 04:25:00,33.6,31.3,29.85,WSW,248,0.0,0.0,91,0.00,CLR,,0.00,WeatherDisplay:10.37,2013-02-23 12:25:00,
2013-02-23 04:30:00,33.4,31.1,29.85,WSW,248,0.0,0.0,91,0.00,CLR,,0.00,WeatherDisplay:10.37,2013-02-23 12:30:00,
2013-02-23 04:35:00,33.4,31.1,29.85,WSW,248,0.0,0.0,91,0.00,CLR,,0.00,WeatherDisplay:10.37,2013-02-23 12:35:00,
2013-02-23 04:40:00,33.3,30.9,29.86,WSW,248,0.0,0.0,91,0.00,CLR,,0.00,WeatherDisplay:10.37,2013-02-23 12:40:00,
2013-02-23 04:45:00,33.1,30.7,29.86,WSW,248,0.0,0.0,91,0.00,CLR,,0.00,WeatherDisplay:10.37,2013-02-23 12:45:00,
2013-02-23 04:50:00,33.1,30.7,29.86,WSW,248,0.0,0.0,91,0.00,CLR,,0.00,WeatherDisplay:10.37,2013-02-23 12:50:00,
2013-02-23 04:55:00,32.9,30.6,29.87,WSW,248,0.0,0.0,91,0.00,CLR,,0.00,WeatherDisplay:10.37,2013-02-23 12:55:00,
2013-02-23 05:00:00,32.7,30.4,29.87,WSW,248,0.0,0.0,91,0.00,CLR,,0.00,WeatherDisplay:10.37,2013-02-23 13:00:00,
2013-02-23 05:05:00,32.5,30.2,29.87,SW,225,0.0,0.0,91,0.00,CLR,,0.00,WeatherDisplay:10.37,2013-02-23 13:05:00,
2013-02-23 05:10:00,32.5,30.2,29.88,SW,225,0.0,0.0,91,0.00,CLR,,0.00,WeatherDisplay:10.37,2013-02-23 13:10:00,
2013-02-23 05:15:00,32.4,30.0,29.87,SW,225,0.0,0.0,91,0.00,CLR,,0.00,WeatherDisplay:10.37,2013-02-23 13:15:00,
2013-02-23 05:20:00,32.4,30.0,29.88,SW,225,0.0,0.0,91,0.00,CLR,,0.00,WeatherDisplay:10.37,2013-02-23 13:20:00,
2013-02-23 05:25:00,32.4,30.0,29.89,SW,225,0.0,0.0,91,0.00,CLR,,0.00,WeatherDisplay:10.37,2013-02-23 13:25:00,
2013-02-23 05:30:00,32.2,29.8,29.89,SW,225,0.0,0.0,91,0.00,CLR,,0.00,WeatherDisplay:10.37,2013-02-23 13:30:00,
2013-02-23 05:35:00,32.2,29.8,29.89,SW,225,0.0,0.0,91,0.00,CLR,,0.00,WeatherDisplay:10.37,2013-02-23 13:35:00,
2013-02-23 05:40:00,31.8,29.5,29.90,SW,225,0.0,0.0,91,0.00,CLR,,0.00,WeatherDisplay:10.37,2013-02-23 13:40:00,
2013-02-23 05:45:00,31.8,29.5,29.90,SW,225,0.0,0.0,91,0.00,CLR,,0.00,WeatherDisplay:10.37,2013-02-23 13:45:00,
2013-02-23 05:50:00,31.8,29.5,29.90,SW,225,0.0,0.0,91,0.00,CLR,,0.00,WeatherDisplay:10.37,2013-02-23 13:50:00,
2013-02-23 05:55:00,31.8,29.5,29.90,SW,225,0.0,0.0,91,0.00,CLR,,0.00,WeatherDisplay:10.37,2013-02-23 13:55:00,
2013-02-23 06:00:00,31.8,29.5,29.89,SW,225,0.0,0.0,91,0.00,CLR,,0.00,WeatherDisplay:10.37,2013-02-23 14:00:00,
2013-02-23 06:05:00,31.6,29.3,29.90,SW,225,0.0,0.0,91,0.00,CLR,,0.00,WeatherDisplay:10.37,2013-02-23 14:05:00,
2013-02-23 06:10:00,31.6,29.3,29.91,SW,225,0.0,0.0,91,0.00,CLR,,0.00,WeatherDisplay:10.37,2013-02-23 14:10:00,
2013-02-23 06:15:00,31.3,29.0,29.91,SW,225,0.0,0.0,91,0.00,CLR,,0.00,WeatherDisplay:10.37,2013-02-23 14:15:00,
2013-02-23 06:20:00,31.3,29.0,29.92,SW,225,0.0,0.0,91,0.00,CLR,,0.00,WeatherDisplay:10.37,2013-02-23 14:20:00,
2013-02-23 06:25:00,31.3,29.0,29.92,SW,225,0.0,0.0,91,0.00,CLR,,0.00,WeatherDisplay:10.37,2013-02-23 14:25:00,
2013-02-23 06:30:00,31.3,29.0,29.92,SW,225,0.0,0.0,91,0.00,CLR,,0.00,WeatherDisplay:10.37,2013-02-23 14:30:00,
2013-02-23 06:35:00,31.3,29.0,29.92,SW,225,0.0,0.0,91,0.00,CLR,,0.00,WeatherDisplay:10.37,2013-02-23 14:35:00,
2013-02-23 06:40:00,31.3,29.0,29.92,SW,225,0.0,0.0,91,0.00,CLR,,0.00,WeatherDisplay:10.37,2013-02-23 14:40:00,
2013-02-23 06:45:00,31.3,29.0,29.92,SW,225,0.0,0.0,91,0.00,CLR,,0.00,WeatherDisplay:10.37,2013-02-23 14:45:00,
2013-02-23 06:50:00,31.3,29.0,29.93,SW,225,0.0,0.0,91,0.00,CLR,,0.00,WeatherDisplay:10.37,2013-02-23 14:50:00,
2013-02-23 06:55:00,31.3,29.0,29.93,SW,225,0.0,0.0,91,0.00,CLR,,0.00,WeatherDisplay:10.37,2013-02-23 14:55:00,
2013-02-23 07:00:00,31.3,29.0,29.93,SW,225,0.0,0.0,91,0.00,CLR,,0.00,WeatherDisplay:10.37,2013-02-23 15:00:00,
2013-02-23 07:05:00,31.3,29.2,29.93,SW,225,0.0,0.0,92,0.00,CLR,,0.00,WeatherDisplay:10.37,2013-02-23 15:05:00,
2013-02-23 07:10:00,31.3,29.2,29.93,SW,225,0.0,0.0,92,0.00,CLR,,0.00,WeatherDisplay:10.37,2013-02-23 15:10:00,
2013-02-23 07:15:00,31.6,29.6,29.93,SW,225,0.0,0.0,92,0.00,CLR,,0.00,WeatherDisplay:10.37,2013-02-23 15:15:00,
2013-02-23 07:20:00,31.8,29.8,29.94,SW,225,0.0,0.0,92,0.00,CLR,,0.00,WeatherDisplay:10.37,2013-02-23 15:20:00,
2013-02-23 07:25:00,31.8,29.8,29.94,SW,225,0.0,0.0,92,0.00,CLR,,0.00,WeatherDisplay:10.37,2013-02-23 15:25:00,
2013-02-23 07:30:00,32.0,29.9,29.95,SW,225,0.0,0.0,92,0.00,CLR,,0.00,WeatherDisplay:10.37,2013-02-23 15:30:00,
2013-02-23 07:35:00,32.2,30.1,29.95,SW,225,0.0,0.0,92,0.00,CLR,,0.00,WeatherDisplay:10.37,2013-02-23 15:35:00,
2013-02-23 07:40:00,32.4,30.3,29.94,SW,225,0.0,0.0,92,0.00,CLR,,0.00,WeatherDisplay:10.37,2013-02-23 15:40:00,
2013-02-23 07:45:00,32.2,30.1,29.95,SW,225,0.0,0.0,92,0.00,CLR,,0.00,WeatherDisplay:10.37,2013-02-23 15:45:00,
2013-02-23 07:50:00,32.2,30.1,29.95,SW,225,0.0,0.0,92,0.00,CLR,,0.00,WeatherDisplay:10.37,2013-02-23 15:50:00,
2013-02-23 07:55:00,32.4,30.3,29.95,SW,225,0.0,0.0,92,0.00,CLR,,0.00,WeatherDisplay:10.37,2013-02-23 15:55:00,
2013-02-23 08:00:00,32.4,30.3,29.95,SW,225,0.0,0.0,92,0.00,CLR,,0.00,WeatherDisplay:10.37,2013-02-23 16:00:00,
2013-02-23 08:05:00,32.5,30.5,29.96,SW,225,0.0,0.0,92,0.00,CLR,,0.00,WeatherDisplay:10.37,2013-02-23 16:05:00,
2013-02-23 08:10:00,32.7,30.7,29.95,SW,225,0.0,0.0,92,0.00,CLR,,0.00,WeatherDisplay:10.37,2013-02-23 16:10:00,
2013-02-23 08:15:00,33.1,31.0,29.96,SW,225,0.0,0.0,92,0.00,CLR,,0.00,WeatherDisplay:10.37,2013-02-23 16:15:00,
2013-02-23 08:20:00,33.3,31.2,29.95,SW,225,0.0,0.0,92,0.00,CLR,,0.00,WeatherDisplay:10.37,2013-02-23 16:20:00,
2013-02-23 08:25:00,33.4,31.4,29.96,SW,225,0.0,0.0,92,0.00,CLR,,0.00,WeatherDisplay:10.37,2013-02-23 16:25:00,
2013-02-23 08:30:00,33.6,31.5,29.96,SW,225,0.0,0.0,92,0.00,CLR,,0.00,WeatherDisplay:10.37,2013-02-23 16:30:00,
2013-02-23 08:35:00,33.6,31.5,29.97,SW,225,0.0,0.0,92,0.00,CLR,,0.00,WeatherDisplay:10.37,2013-02-23 16:35:00,
2013-02-23 08:40:00,33.8,31.7,29.97,SW,225,0.0,0.0,92,0.00,CLR,,0.00,WeatherDisplay:10.37,2013-02-23 16:40:00,
2013-02-23 08:45:00,34.0,31.9,29.97,SW,225,0.0,0.0,92,0.00,CLR,,0.00,WeatherDisplay:10.37,2013-02-23 16:45:00,
2013-02-23 08:50:00,34.0,31.9,29.97,SW,225,0.0,0.0,92,0.00,CLR,,0.00,WeatherDisplay:10.37,2013-02-23 16:50:00,
2013-02-23 08:55:00,34.3,32.3,29.97,SW,225,0.0,0.0,92,0.00,CLR,,0.00,WeatherDisplay:10.37,2013-02-23 16:55:00,
2013-02-23 09:00:00,34.3,32.3,29.97,SSW,202,0.0,0.0,92,0.00,CLR,,0.00,WeatherDisplay:10.37,2013-02-23 17:00:00,
2013-02-23 09:05:00,34.3,32.3,29.97,SSW,202,0.0,0.0,92,0.00,CLR,,0.00,WeatherDisplay:10.37,2013-02-23 17:05:00,
2013-02-23 09:10:00,34.5,32.4,29.97,SE,135,0.0,0.0,92,0.00,CLR,,0.00,WeatherDisplay:10.37,2013-02-23 17:10:00,
2013-02-23 09:15:00,34.5,32.4,29.97,SE,135,0.0,0.0,92,0.00,CLR,,0.00,WeatherDisplay:10.37,2013-02-23 17:15:00,
2013-02-23 09:20:00,34.7,32.6,29.98,SE,135,0.0,0.0,92,0.00,CLR,,0.00,WeatherDisplay:10.37,2013-02-23 17:20:00,
2013-02-23 09:25:00,34.9,32.8,29.98,SE,135,0.0,0.0,92,0.00,CLR,,0.00,WeatherDisplay:10.37,2013-02-23 17:25:00,
2013-02-23 09:30:00,35.2,33.1,29.98,SE,135,0.0,0.0,92,0.00,CLR,,0.00,WeatherDisplay:10.37,2013-02-23 17:30:00,
2013-02-23 09:35:00,35.4,33.3,29.98,SE,135,0.0,0.0,92,0.00,CLR,,0.00,WeatherDisplay:10.37,2013-02-23 17:35:00,
2013-02-23 09:40:00,35.8,33.7,29.98,SE,135,0.0,0.0,92,0.00,CLR,,0.00,WeatherDisplay:10.37,2013-02-23 17:40:00,
2013-02-23 09:45:00,35.8,33.7,29.98,SE,135,0.0,0.0,92,0.00,CLR,,0.00,WeatherDisplay:10.37,2013-02-23 17:45:00,
2013-02-23 09:50:00,36.0,33.9,29.98,SE,135,0.0,0.0,92,0.00,CLR,,0.00,WeatherDisplay:10.37,2013-02-23 17:50:00,
2013-02-23 09:55:00,36.1,33.8,29.98,SE,135,0.0,0.0,91,0.00,CLR,,0.00,WeatherDisplay:10.37,2013-02-23 17:55:00,
2013-02-23 10:00:00,36.1,33.8,29.98,SE,135,0.0,0.0,91,0.00,CLR,,0.00,WeatherDisplay:10.37,2013-02-23 18:00:00,
2013-02-23 10:05:00,36.3,33.9,29.98,SE,135,0.0,0.0,91,0.00,CLR,,0.00,WeatherDisplay:10.37,2013-02-23 18:05:00,
2013-02-23 10:10:00,36.3,33.7,29.98,SE,135,0.0,0.0,90,0.00,CLR,,0.00,WeatherDisplay:10.37,2013-02-23 18:10:00,
2013-02-23 10:15:00,36.7,34.3,29.98,SE,135,0.0,0.0,91,0.00,CLR,,0.00,WeatherDisplay:10.37,2013-02-23 18:15:00,
2013-02-23 10:20:00,37.0,34.4,29.99,SE,135,0.0,0.0,90,0.00,CLR,,0.00,WeatherDisplay:10.37,2013-02-23 18:20:00,
2013-02-23 10:25:00,37.6,34.9,29.99,SE,135,0.0,0.0,90,0.00,CLR,,0.00,WeatherDisplay:10.37,2013-02-23 18:25:00,
2013-02-23 10:30:00,37.9,35.0,29.99,SE,135,0.0,0.0,89,0.00,CLR,,0.00,WeatherDisplay:10.37,2013-02-23 18:30:00,
2013-02-23 10:35:00,38.1,35.2,29.99,SE,135,0.0,0.0,89,0.00,CLR,,0.00,WeatherDisplay:10.37,2013-02-23 18:35:00,
2013-02-23 10:40:00,38.5,34.9,29.99,SE,135,0.0,0.0,87,0.00,CLR,,0.00,WeatherDisplay:10.37,2013-02-23 18:40:00,
2013-02-23 10:45:00,38.8,35.3,29.99,SE,135,0.0,0.0,87,0.00,CLR,,0.00,WeatherDisplay:10.37,2013-02-23 18:45:00,
2013-02-23 10:50:00,39.0,35.2,29.99,SE,135,0.0,0.0,86,0.00,CLR,,0.00,WeatherDisplay:10.37,2013-02-23 18:50:00,
2013-02-23 10:55:00,39.6,35.1,29.99,West,270,0.0,0.0,84,0.00,CLR,,0.00,WeatherDisplay:10.37,2013-02-23 18:55:00,
2013-02-23 11:00:00,39.7,35.0,29.99,West,270,0.0,0.0,83,0.00,CLR,,0.00,WeatherDisplay:10.37,2013-02-23 19:00:00,
2013-02-23 11:05:00,39.9,35.2,29.99,WSW,248,0.0,0.0,83,0.00,CLR,,0.00,WeatherDisplay:10.37,2013-02-23 19:05:00,
2013-02-23 11:10:00,39.9,34.6,30.00,WSW,248,0.0,0.0,81,0.00,CLR,,0.00,WeatherDisplay:10.37,2013-02-23 19:10:00,
2013-02-23 11:15:00,39.9,34.6,29.99,WSW,248,0.0,0.0,81,0.00,CLR,,0.00,WeatherDisplay:10.37,2013-02-23 19:15:00,
2013-02-23 11:20:00,39.9,34.2,30.00,WSW,248,0.0,0.0,80,0.00,CLR,,0.00,WeatherDisplay:10.37,2013-02-23 19:20:00,
2013-02-23 11:25:00,40.1,34.4,29.99,SW,225,0.0,0.0,80,0.00,CLR,,0.00,WeatherDisplay:10.37,2013-02-23 19:25:00,
2013-02-23 11:30:00,40.3,34.6,29.99,SSE,158,0.0,0.0,80,0.00,CLR,,0.00,WeatherDisplay:10.37,2013-02-23 19:30:00,
2013-02-23 11:35:00,40.6,35.0,30.00,SSE,158,1.1,1.1,80,0.00,CLR,,0.00,WeatherDisplay:10.37,2013-02-23 19:35:00,
2013-02-23 11:40:00,40.8,34.5,29.99,SSE,158,0.0,0.0,78,0.00,CLR,,0.00,WeatherDisplay:10.37,2013-02-23 19:40:00,
2013-02-23 11:45:00,41.0,34.7,29.99,SSE,158,0.0,0.0,78,0.00,CLR,,0.00,WeatherDisplay:10.37,2013-02-23 19:45:00,
2013-02-23 11:50:00,41.4,35.0,29.99,SSE,158,0.0,0.0,78,0.00,CLR,,0.00,WeatherDisplay:10.37,2013-02-23 19:50:00,
2013-02-23 11:55:00,41.7,35.4,29.99,SSE,158,0.0,0.0,78,0.00,CLR,,0.00,WeatherDisplay:10.37,2013-02-23 19:55:00,
2013-02-23 12:00:00,41.9,35.2,29.99,SSE,158,0.0,0.0,77,0.00,CLR,,0.00,WeatherDisplay:10.37,2013-02-23 20:00:00,
2013-02-23 12:05:00,42.1,35.1,29.99,SSE,158,0.0,0.0,76,0.00,CLR,,0.00,WeatherDisplay:10.37,2013-02-23 20:05:00,
2013-02-23 12:10:00,42.4,34.7,29.99,SSE,158,0.0,0.0,74,0.00,CLR,,0.00,WeatherDisplay:10.37,2013-02-23 20:10:00,
2013-02-23 12:15:00,42.4,34.4,29.99,SSE,158,0.0,0.0,73,0.00,CLR,,0.00,WeatherDisplay:10.37,2013-02-23 20:15:00,
2013-02-23 12:20:00,42.4,34.0,29.98,SSE,158,0.0,0.0,72,0.00,CLR,,0.00,WeatherDisplay:10.37,2013-02-23 20:20:00,
2013-02-23 12:25:00,42.6,33.9,29.99,SSE,158,0.0,0.0,71,0.00,CLR,,0.00,WeatherDisplay:10.37,2013-02-23 20:25:00,
2013-02-23 12:30:00,42.6,33.2,29.99,SE,135,0.0,0.0,69,0.00,CLR,,0.00,WeatherDisplay:10.37,2013-02-23 20:30:00,
2013-02-23 12:35:00,43.0,33.9,29.99,ESE,112,0.0,0.0,70,0.00,CLR,,0.00,WeatherDisplay:10.37,2013-02-23 20:35:00,
2013-02-23 12:40:00,43.2,33.7,29.98,ENE,68,0.0,0.0,69,0.00,CLR,,0.00,WeatherDisplay:10.37,2013-02-23 20:40:00,
2013-02-23 12:45:00,43.5,34.0,29.99,ENE,68,0.0,0.0,69,0.00,CLR,,0.00,WeatherDisplay:10.37,2013-02-23 20:45:00,
2013-02-23 12:50:00,43.3,33.1,29.99,NNE,22,0.0,0.0,67,0.00,CLR,,0.00,WeatherDisplay:10.37,2013-02-23 20:50:00,
2013-02-23 12:55:00,43.5,32.9,29.98,North,0,0.0,0.0,66,0.00,CLR,,0.00,WeatherDisplay:10.37,2013-02-23 20:55:00,
2013-02-23 13:00:00,43.5,32.5,29.99,North,0,1.3,1.3,65,0.00,CLR,,0.00,WeatherDisplay:10.37,2013-02-23 21:00:00,
2013-02-23 13:05:00,43.3,32.0,29.99,North,0,0.0,0.0,64,0.00,CLR,,0.00,WeatherDisplay:10.37,2013-02-23 21:05:00,
2013-02-23 13:10:00,43.2,31.8,29.99,NW,315,1.1,1.1,64,0.00,CLR,,0.00,WeatherDisplay:10.37,2013-02-23 21:10:00,
2013-02-23 13:15:00,43.2,31.8,29.99,NW,315,0.0,0.1,64,0.00,CLR,,0.00,WeatherDisplay:10.37,2013-02-23 21:15:00,
2013-02-23 13:20:00,43.2,31.8,30.00,WNW,292,2.3,2.3,64,0.00,CLR,,0.00,WeatherDisplay:10.37,2013-02-23 21:20:00,
2013-02-23 13:25:00,43.3,32.0,30.00,WNW,292,0.0,0.0,64,0.00,CLR,,0.00,WeatherDisplay:10.37,2013-02-23 21:25:00,
2013-02-23 13:30:00,43.2,31.8,30.01,West,270,0.0,0.0,64,0.00,CLR,,0.00,WeatherDisplay:10.37,2013-02-23 21:30:00,
2013-02-23 13:36:00,43.3,32.4,30.00,WSW,248,0.0,0.0,65,0.00,CLR,,0.00,WeatherDisplay:10.37,2013-02-23 21:36:00,
2013-02-23 13:41:00,43.2,32.2,30.01,West,270,5.8,5.8,65,0.00,CLR,,0.00,WeatherDisplay:10.37,2013-02-23 21:41:00,
2013-02-23 13:46:00,42.4,31.9,30.01,West,270,3.5,3.5,66,0.00,CLR,,0.00,WeatherDisplay:10.37,2013-02-23 21:46:00,
2013-02-23 13:51:00,42.1,31.9,30.01,West,270,2.3,2.7,67,0.00,CLR,,0.00,WeatherDisplay:10.37,2013-02-23 21:51:00,
2013-02-23 13:56:00,42.4,33.0,30.02,West,270,0.0,0.0,69,0.00,CLR,,0.00,WeatherDisplay:10.37,2013-02-23 21:56:00,
2013-02-23 14:01:00,42.4,33.0,30.01,ESE,112,0.0,0.0,69,0.02,RA,,0.02,WeatherDisplay:10.37,2013-02-23 22:01:00,
2013-02-23 14:06:00,42.4,33.0,30.02,ESE,112,4.6,4.6,69,0.02,RA,,0.02,WeatherDisplay:10.37,2013-02-23 22:06:00,
2013-02-23 14:11:00,42.4,33.0,30.01,ESE,112,6.9,6.9,69,0.02,,,0.02,WeatherDisplay:10.37,2013-02-23 22:11:00,
2013-02-23 14:16:00,42.4,33.0,30.02,ESE,112,4.6,4.6,69,0.02,CLR,,0.02,WeatherDisplay:10.37,2013-02-23 22:16:00,
2013-02-23 14:21:00,42.4,33.0,30.02,ESE,112,3.5,3.5,69,0.02,CLR,,0.02,WeatherDisplay:10.37,2013-02-23 22:21:00,
2013-02-23 14:26:00,42.4,33.0,30.02,ESE,112,2.3,2.3,69,0.02,CLR,,0.02,WeatherDisplay:10.37,2013-02-23 22:26:00,
2013-02-23 14:31:00,42.6,33.2,30.02,NE,45,6.9,6.9,69,0.02,CLR,,0.02,WeatherDisplay:10.37,2013-02-23 22:31:00,
2013-02-23 14:36:00,42.6,33.2,30.02,ENE,68,3.5,3.5,69,0.02,CLR,,0.02,WeatherDisplay:10.37,2013-02-23 22:36:00,
2013-02-23 14:41:00,43.0,33.1,30.03,NNE,22,8.1,8.1,68,0.02,CLR,,0.02,WeatherDisplay:10.37,2013-02-23 22:41:00,
2013-02-23 14:46:00,43.0,33.1,30.03,NE,45,10.4,10.4,68,0.02,CLR,,0.02,WeatherDisplay:10.37,2013-02-23 22:46:00,
2013-02-23 14:51:00,42.6,32.4,30.03,NE,45,7.2,7.2,67,0.02,CLR,,0.02,WeatherDisplay:10.37,2013-02-23 22:51:00,
2013-02-23 14:56:00,42.4,32.6,30.04,NE,45,12.7,12.7,68,0.02,CLR,,0.02,WeatherDisplay:10.37,2013-02-23 22:56:00,
2013-02-23 15:01:00,42.1,32.3,30.04,NE,45,12.1,12.1,68,0.00,CLR,,0.02,WeatherDisplay:10.37,2013-02-23 23:01:00,
2013-02-23 15:06:00,41.7,31.9,30.05,WNW,292,8.5,8.5,68,0.00,CLR,,0.02,WeatherDisplay:10.37,2013-02-23 23:06:00,
2013-02-23 15:11:00,41.0,32.0,30.06,WSW,248,8.1,8.1,70,0.00,CLR,,0.02,WeatherDisplay:10.37,2013-02-23 23:11:00,
2013-02-23 15:16:00,40.5,31.8,30.06,WNW,292,6.9,7.3,71,0.00,CLR,,0.02,WeatherDisplay:10.37,2013-02-23 23:16:00,
2013-02-23 15:21:00,39.6,32.0,30.07,West,270,0.0,0.0,74,0.00,CLR,,0.02,WeatherDisplay:10.37,2013-02-23 23:21:00,
2013-02-23 15:26:00,39.4,32.4,30.07,NW,315,1.1,1.1,76,0.02,RA,,0.04,WeatherDisplay:10.37,2013-02-23 23:26:00,
2013-02-23 15:31:00,39.0,32.1,30.07,NNW,338,0.0,0.0,76,0.02,RA,,0.04,WeatherDisplay:10.37,2013-02-23 23:31:00,
2013-02-23 15:36:00,39.4,32.4,30.07,NNW,338,0.0,0.0,76,0.02,,,0.04,WeatherDisplay:10.37,2013-02-23 23:36:00,
2013-02-23 15:41:00,39.0,32.4,30.07,NNW,338,0.0,0.0,77,0.02,CLR,,0.04,WeatherDisplay:10.37,2013-02-23 23:41:00,
2013-02-23 15:46:00,39.0,32.7,30.06,SSW,202,0.0,0.0,78,0.02,CLR,,0.04,WeatherDisplay:10.37,2013-02-23 23:46:00,
2013-02-23 15:51:00,39.0,32.7,30.07,SSW,202,0.0,0.0,78,0.02,CLR,,0.04,WeatherDisplay:10.37,2013-02-23 23:51:00,
2013-02-23 15:56:00,39.0,33.1,30.06,SSW,202,0.0,0.0,79,0.02,CLR,,0.04,WeatherDisplay:10.37,2013-02-23 23:56:00,
2013-02-23 16:01:00,39.0,33.1,30.06,SSW,202,0.0,0.0,79,0.02,CLR,,0.04,WeatherDisplay:10.37,2013-02-24 00:01:00,
2013-02-23 16:06:00,39.0,33.1,30.06,SSW,202,0.0,0.0,79,0.02,CLR,,0.04,WeatherDisplay:10.37,2013-02-24 00:06:00,
2013-02-23 16:11:00,38.8,32.9,30.07,SSW,202,0.0,0.0,79,0.02,CLR,,0.04,WeatherDisplay:10.37,2013-02-24 00:11:00,
2013-02-23 16:16:00,38.8,32.9,30.07,SSW,202,0.0,0.0,79,0.02,CLR,,0.04,WeatherDisplay:10.37,2013-02-24 00:16:00,
2013-02-23 16:21:00,38.5,32.8,30.07,South,180,0.0,0.0,80,0.02,CLR,,0.04,WeatherDisplay:10.37,2013-02-24 00:21:00,
2013-02-23 16:26:00,38.1,32.5,30.08,South,180,0.0,0.0,80,0.00,CLR,,0.04,WeatherDisplay:10.37,2013-02-24 00:26:00,
2013-02-23 16:31:00,38.1,32.8,30.09,South,180,1.1,1.1,81,0.00,CLR,,0.04,WeatherDisplay:10.37,2013-02-24 00:31:00,
2013-02-23 16:36:00,37.9,32.6,30.09,South,180,0.0,0.0,81,0.00,CLR,,0.04,WeatherDisplay:10.37,2013-02-24 00:36:00,
2013-02-23 16:41:00,37.9,32.9,30.09,South,180,0.0,0.0,82,0.00,CLR,,0.04,WeatherDisplay:10.37,2013-02-24 00:41:00,
2013-02-23 16:46:00,37.8,32.8,30.09,SSW,202,0.0,0.0,82,0.00,CLR,,0.04,WeatherDisplay:10.37,2013-02-24 00:46:00,
2013-02-23 16:51:00,37.8,32.8,30.09,SSW,202,0.0,0.0,82,0.00,CLR,,0.04,WeatherDisplay:10.37,2013-02-24 00:51:00,
2013-02-23 16:56:00,37.6,32.6,30.09,SSE,158,0.0,0.0,82,0.00,CLR,,0.04,WeatherDisplay:10.37,2013-02-24 00:56:00,
2013-02-23 17:01:00,37.6,32.6,30.10,SE,135,0.0,0.0,82,0.00,CLR,,0.04,WeatherDisplay:10.37,2013-02-24 01:01:00,
2013-02-23 17:06:00,37.6,32.9,30.09,SE,135,0.0,0.0,83,0.00,CLR,,0.04,WeatherDisplay:10.37,2013-02-24 01:06:00,
2013-02-23 17:11:00,37.6,32.9,30.10,SSE,158,0.0,0.0,83,0.00,CLR,,0.04,WeatherDisplay:10.37,2013-02-24 01:11:00,
2013-02-23 17:16:00,37.4,33.0,30.10,West,270,0.0,0.0,84,0.00,CLR,,0.04,WeatherDisplay:10.37,2013-02-24 01:16:00,
2013-02-23 17:21:00,37.4,33.0,30.10,West,270,0.0,0.0,84,0.00,CLR,,0.04,WeatherDisplay:10.37,2013-02-24 01:21:00,
2013-02-23 17:26:00,37.2,32.8,30.11,West,270,0.0,0.0,84,0.00,CLR,,0.04,WeatherDisplay:10.37,2013-02-24 01:26:00,
2013-02-23 17:31:00,37.4,33.0,30.11,West,270,0.0,0.0,84,0.00,CLR,,0.04,WeatherDisplay:10.37,2013-02-24 01:31:00,
2013-02-23 17:36:00,37.4,33.0,30.12,South,180,0.0,0.0,84,0.00,CLR,,0.04,WeatherDisplay:10.37,2013-02-24 01:36:00,
2013-02-23 17:41:00,37.4,33.0,30.12,SE,135,0.0,0.0,84,0.00,CLR,,0.04,WeatherDisplay:10.37,2013-02-24 01:41:00,
2013-02-23 17:46:00,37.2,32.8,30.12,SE,135,0.0,0.0,84,0.00,CLR,,0.04,WeatherDisplay:10.37,2013-02-24 01:46:00,
2013-02-23 17:51:00,37.2,32.8,30.13,SE,135,0.0,0.0,84,0.00,CLR,,0.04,WeatherDisplay:10.37,2013-02-24 01:51:00,
2013-02-23 17:56:00,37.2,32.8,30.13,SSE,158,0.0,0.0,84,0.00,CLR,,0.04,WeatherDisplay:10.37,2013-02-24 01:56:00,
2013-02-23 18:01:00,37.2,33.1,30.13,SSE,158,0.0,0.0,85,0.00,CLR,,0.04,WeatherDisplay:10.37,2013-02-24 02:01:00,
2013-02-23 18:06:00,37.0,32.9,30.12,SE,135,1.1,1.1,85,0.00,CLR,,0.04,WeatherDisplay:10.37,2013-02-24 02:06:00,
2013-02-23 18:11:00,36.9,32.8,30.12,SE,135,0.0,0.0,85,0.02,RA,,0.06,WeatherDisplay:10.37,2013-02-24 02:11:00,
2013-02-23 18:16:00,36.7,32.6,30.12,SSE,158,0.0,0.0,85,0.02,RA,,0.06,WeatherDisplay:10.37,2013-02-24 02:16:00,
2013-02-23 18:21:00,36.7,32.9,30.13,SSE,158,0.0,0.0,86,0.02,CLR,,0.06,WeatherDisplay:10.37,2013-02-24 02:21:00,
2013-02-23 18:26:00,36.7,32.9,30.14,SSE,158,0.0,0.0,86,0.02,CLR,,0.06,WeatherDisplay:10.37,2013-02-24 02:26:00,
2013-02-23 18:31:00,36.5,32.7,30.14,SSE,158,0.0,0.0,86,0.02,CLR,,0.06,WeatherDisplay:10.37,2013-02-24 02:31:00,
2013-02-23 18:36:00,36.5,32.7,30.14,SSE,158,0.0,0.0,86,0.02,CLR,,0.06,WeatherDisplay:10.37,2013-02-24 02:36:00,
2013-02-23 18:41:00,36.3,32.5,30.14,South,180,7.2,7.2,86,0.02,CLR,,0.06,WeatherDisplay:10.37,2013-02-24 02:41:00,
2013-02-23 18:46:00,36.1,32.4,30.14,SSE,158,6.0,6.0,86,0.02,CLR,,0.06,WeatherDisplay:10.37,2013-02-24 02:46:00,
2013-02-23 18:51:00,36.1,32.4,30.16,SSE,158,0.0,0.0,86,0.02,CLR,,0.06,WeatherDisplay:10.37,2013-02-24 02:51:00,
2013-02-23 18:56:00,36.1,32.4,30.15,SSE,158,0.0,0.0,86,0.02,CLR,,0.06,WeatherDisplay:10.37,2013-02-24 02:56:00,
2013-02-23 19:01:00,36.1,32.4,30.15,SE,135,0.0,0.0,86,0.02,CLR,,0.06,WeatherDisplay:10.37,2013-02-24 03:01:00,
2013-02-23 19:06:00,36.0,32.5,30.15,SE,135,2.3,2.3,87,0.02,CLR,,0.06,WeatherDisplay:10.37,2013-02-24 03:06:00,
2013-02-23 19:11:00,36.0,32.5,30.16,SE,135,0.0,0.0,87,0.00,CLR,,0.06,WeatherDisplay:10.37,2013-02-24 03:11:00,
2013-02-23 19:16:00,36.0,32.5,30.16,SE,135,0.0,0.0,87,0.00,CLR,,0.06,WeatherDisplay:10.37,2013-02-24 03:16:00,
2013-02-23 19:21:00,35.8,32.3,30.16,SE,135,0.0,0.0,87,0.00,CLR,,0.06,WeatherDisplay:10.37,2013-02-24 03:21:00,
2013-02-23 19:26:00,35.8,32.3,30.17,SE,135,0.0,0.0,87,0.00,CLR,,0.06,WeatherDisplay:10.37,2013-02-24 03:26:00,
2013-02-23 19:31:00,35.8,32.3,30.16,SSE,158,0.0,0.0,87,0.00,CLR,,0.06,WeatherDisplay:10.37,2013-02-24 03:31:00,
2013-02-23 19:36:00,35.8,32.3,30.16,SSE,158,0.0,0.0,87,0.00,CLR,,0.06,WeatherDisplay:10.37,2013-02-24 03:36:00,
2013-02-23 19:41:00,35.8,32.3,30.17,SSE,158,0.0,0.0,87,0.00,CLR,,0.06,WeatherDisplay:10.37,2013-02-24 03:41:00,
2013-02-23 19:46:00,35.8,32.3,30.17,SSE,158,0.0,0.0,87,0.00,CLR,,0.06,WeatherDisplay:10.37,2013-02-24 03:46:00,
2013-02-23 19:51:00,35.8,32.3,30.17,SSE,158,0.0,0.0,87,0.00,CLR,,0.06,WeatherDisplay:10.37,2013-02-24 03:51:00,
2013-02-23 19:56:00,35.8,32.3,30.17,SSE,158,0.0,0.0,87,0.00,CLR,,0.06,WeatherDisplay:10.37,2013-02-24 03:56:00,
2013-02-23 20:01:00,35.8,32.3,30.18,SSE,158,0.0,0.0,87,0.00,CLR,,0.06,WeatherDisplay:10.37,2013-02-24 04:01:00,
2013-02-23 20:06:00,35.8,32.3,30.18,SSE,158,0.0,0.0,87,0.00,CLR,,0.06,WeatherDisplay:10.37,2013-02-24 04:06:00,
2013-02-23 20:11:00,35.8,32.3,30.18,SSE,158,0.0,0.0,87,0.00,CLR,,0.06,WeatherDisplay:10.37,2013-02-24 04:11:00,
2013-02-23 20:16:00,35.8,32.3,30.18,SSE,158,0.0,0.0,87,0.00,CLR,,0.06,WeatherDisplay:10.37,2013-02-24 04:16:00,
2013-02-23 20:21:00,35.4,32.2,30.18,SSE,158,0.0,0.0,88,0.00,CLR,,0.06,WeatherDisplay:10.37,2013-02-24 04:21:00,
2013-02-23 20:26:00,35.4,32.2,30.18,SSE,158,0.0,0.0,88,0.00,CLR,,0.06,WeatherDisplay:10.37,2013-02-24 04:26:00,
2013-02-23 20:31:00,35.4,32.2,30.18,SSE,158,0.0,0.0,88,0.00,CLR,,0.06,WeatherDisplay:10.37,2013-02-24 04:31:00,
2013-02-23 20:36:00,35.2,32.0,30.18,SSE,158,0.0,0.0,88,0.00,CLR,,0.06,WeatherDisplay:10.37,2013-02-24 04:36:00,
2013-02-23 20:41:00,35.2,32.0,30.19,SSE,158,0.0,0.0,88,0.00,CLR,,0.06,WeatherDisplay:10.37,2013-02-24 04:41:00,
2013-02-23 20:46:00,34.9,31.7,30.19,SSE,158,0.0,0.0,88,0.00,CLR,,0.06,WeatherDisplay:10.37,2013-02-24 04:46:00,
2013-02-23 20:51:00,34.3,30.9,30.19,SSE,158,0.0,0.0,87,0.00,CLR,,0.06,WeatherDisplay:10.37,2013-02-24 04:51:00,
2013-02-23 20:56:00,34.3,30.9,30.19,SSE,158,0.0,0.0,87,0.00,CLR,,0.06,WeatherDisplay:10.37,2013-02-24 04:56:00,
2013-02-23 21:00:00,34.3,30.9,30.19,SSE,158,0.0,0.0,87,0.00,CLR,,0.06,WeatherDisplay:10.37,2013-02-24 05:00:00,
2013-02-23 21:05:00,34.2,30.7,30.19,SSE,158,0.0,0.0,87,0.00,CLR,,0.06,WeatherDisplay:10.37,2013-02-24 05:05:00,
2013-02-23 21:10:00,34.0,30.5,30.20,SSE,158,0.0,0.0,87,0.00,CLR,,0.06,WeatherDisplay:10.37,2013-02-24 05:10:00,
2013-02-23 21:15:00,33.6,30.2,30.20,SSE,158,0.0,0.0,87,0.00,CLR,,0.06,WeatherDisplay:10.37,2013-02-24 05:15:00,
2013-02-23 21:20:00,33.6,30.2,30.21,SSE,158,0.0,0.0,87,0.00,CLR,,0.06,WeatherDisplay:10.37,2013-02-24 05:20:00,
2013-02-23 21:25:00,33.4,30.0,30.21,SSE,158,0.0,0.0,87,0.00,CLR,,0.06,WeatherDisplay:10.37,2013-02-24 05:25:00,
2013-02-23 21:30:00,33.1,29.9,30.21,SSE,158,0.0,0.0,88,0.00,CLR,,0.06,WeatherDisplay:10.37,2013-02-24 05:30:00,
2013-02-23 21:35:00,33.1,29.9,30.21,SSE,158,0.0,0.0,88,0.00,CLR,,0.06,WeatherDisplay:10.37,2013-02-24 05:35:00,
2013-02-23 21:40:00,32.9,29.7,30.21,SSE,158,0.0,0.0,88,0.00,CLR,,0.06,WeatherDisplay:10.37,2013-02-24 05:40:00,
2013-02-23 21:45:00,32.7,29.6,30.21,SSE,158,0.0,0.0,88,0.00,CLR,,0.06,WeatherDisplay:10.37,2013-02-24 05:45:00,
2013-02-23 21:50:00,32.9,29.7,30.22,SSE,158,0.0,0.0,88,0.00,CLR,,0.06,WeatherDisplay:10.37,2013-02-24 05:50:00,
2013-02-23 21:55:00,32.9,29.7,30.22,SSE,158,0.0,0.0,88,0.00,CLR,,0.06,WeatherDisplay:10.37,2013-02-24 05:55:00,
2013-02-23 22:00:00,32.9,29.7,30.22,SSE,158,0.0,0.0,88,0.00,CLR,,0.06,WeatherDisplay:10.37,2013-02-24 06:00:00,
2013-02-23 22:05:00,32.9,29.7,30.22,SSE,158,0.0,0.0,88,0.00,CLR,,0.06,WeatherDisplay:10.37,2013-02-24 06:05:00,
2013-02-23 22:10:00,32.7,29.6,30.22,SSE,158,0.0,0.0,88,0.00,CLR,,0.06,WeatherDisplay:10.37,2013-02-24 06:10:00,
2013-02-23 22:15:00,32.7,29.6,30.22,SSE,158,0.0,0.0,88,0.00,CLR,,0.06,WeatherDisplay:10.37,2013-02-24 06:15:00,
2013-02-23 22:20:00,32.7,29.6,30.22,SSE,158,0.0,0.0,88,0.00,CLR,,0.06,WeatherDisplay:10.37,2013-02-24 06:20:00,
2013-02-23 22:25:00,32.7,29.6,30.23,SSE,158,0.0,0.0,88,0.00,CLR,,0.06,WeatherDisplay:10.37,2013-02-24 06:25:00,
2013-02-23 22:30:00,32.7,29.6,30.23,SSE,158,0.0,0.0,88,0.00,CLR,,0.06,WeatherDisplay:10.37,2013-02-24 06:30:00,
2013-02-23 22:35:00,32.7,29.6,30.23,SSE,158,0.0,0.0,88,0.00,CLR,,0.06,WeatherDisplay:10.37,2013-02-24 06:35:00,
2013-02-23 22:40:00,32.7,29.8,30.23,SSE,158,0.0,0.0,89,0.00,CLR,,0.06,WeatherDisplay:10.37,2013-02-24 06:40:00,
2013-02-23 22:45:00,32.7,29.8,30.23,SSE,158,0.0,0.0,89,0.00,CLR,,0.06,WeatherDisplay:10.37,2013-02-24 06:45:00,
2013-02-23 22:50:00,32.7,29.8,30.23,SSE,158,0.0,0.0,89,0.00,CLR,,0.06,WeatherDisplay:10.37,2013-02-24 06:50:00,
2013-02-23 22:55:00,32.7,29.8,30.24,SSE,158,0.0,0.0,89,0.00,CLR,,0.06,WeatherDisplay:10.37,2013-02-24 06:55:00,
2013-02-23 23:00:00,32.7,29.8,30.23,SSE,158,0.0,0.0,89,0.00,CLR,,0.06,WeatherDisplay:10.37,2013-02-24 07:00:00,
2013-02-23 23:05:00,32.7,29.8,30.24,ESE,112,0.0,0.0,89,0.00,CLR,,0.06,WeatherDisplay:10.37,2013-02-24 07:05:00,
2013-02-23 23:10:00,32.7,29.8,30.24,ESE,112,0.0,0.0,89,0.00,CLR,,0.06,WeatherDisplay:10.37,2013-02-24 07:10:00,
2013-02-23 23:15:00,32.7,29.8,30.24,ESE,112,0.0,0.0,89,0.00,CLR,,0.06,WeatherDisplay:10.37,2013-02-24 07:15:00,
2013-02-23 23:20:00,32.7,29.8,30.24,ESE,112,0.0,0.0,89,0.00,CLR,,0.06,WeatherDisplay:10.37,2013-02-24 07:20:00,
2013-02-23 23:25:00,32.7,29.8,30.24,SE,135,0.0,0.0,89,0.00,CLR,,0.06,WeatherDisplay:10.37,2013-02-24 07:25:00,
2013-02-23 23:30:00,32.9,30.0,30.24,SE,135,0.0,0.0,89,0.00,CLR,,0.06,WeatherDisplay:10.37,2013-02-24 07:30:00,
2013-02-23 23:35:00,32.7,29.8,30.24,SE,135,0.0,0.0,89,0.00,CLR,,0.06,WeatherDisplay:10.37,2013-02-24 07:35:00,
2013-02-23 23:40:00,32.7,29.8,30.25,SE,135,0.0,0.0,89,0.00,CLR,,0.06,WeatherDisplay:10.37,2013-02-24 07:40:00,
2013-02-23 23:45:00,32.9,30.0,30.25,SE,135,0.0,0.0,89,0.00,CLR,,0.06,WeatherDisplay:10.37,2013-02-24 07:45:00,
2013-02-23 23:50:00,32.9,30.0,30.25,SE,135,0.0,0.0,89,0.00,CLR,,0.06,WeatherDisplay:10.37,2013-02-24 07:50:00,
2013-02-23 23:55:00,32.7,29.8,30.25,SE,135,0.0,0.0,89,0.00,CLR,,0.06,WeatherDisplay:10.37,2013-02-24 07:55:00,